Vorticity
nan nan nan nan nan nan nan nan nan nan nan nan nan nan nan nan nan nan nan nan nan nan nan nan nan nan nan nan nan nan nan nan nan nan nan nan nan nan nan nan nan nan nan nan nan nan nan nan nan
nan -0 2 6 6 5 7 10 7 9 7 6 6 7 4 8 12 10 8 9 6 5 7 9 9 5 4 5 5 5 5 5 5 5 4 4 4 4 4 4 4 4 5 5 6 6 6 6 nan
nan -1 5 7 4 3 6 11 12 11 4 1 5 6 8 11 11 6 8 7 5 6 9 13 8 5 5 4 4 6 5 5 5 4 4 4 4 4 4 4 4 5 6 6 7 6 6 6 nan
nan 5 6 5 5 7 9 11 8 2 2 9 6 3 10 9 9 10 9 4 4 6 10 12 6 4 4 5 5 5 5 5 4 4 4 4 4 4 4 4 4 5 5 7 7 6 6 6 nan
nan 5 6 7 7 9 12 8 3 4 8 8 5 7 6 9 15 10 4 4 4 5 9 9 7 4 4 4 4 4 4 5 5 4 4 4 4 5 5 4 4 4 6 7 7 6 6 5 nan
nan 8 6 6 7 8 11 7 5 7 10 7 7 7 9 13 6 4 5 5 5 5 7 11 8 4 4 4 4 3 4 4 4 5 4 3 4 4 4 4 4 5 7 7 6 5 6 7 nan
nan 8 6 6 7 7 9 6 8 9 6 7 4 2 11 8 5 6 5 6 6 5 6 7 8 9 5 3 3 4 4 4 4 4 4 3 3 4 4 4 4 5 6 6 6 6 6 7 nan
nan 7 6 7 8 8 10 8 7 5 8 9 7 6 11 11 6 5 6 5 5 6 6 7 7 6 6 10 7 3 3 4 4 4 4 5 5 4 4 3 4 5 6 6 5 6 6 6 nan
nan 6 8 9 7 10 7 7 5 8 9 2 8 13 18 13 3 4 4 5 6 5 6 6 7 7 7 7 9 9 5 5 5 5 4 4 5 6 6 6 6 8 6 6 6 6 7 8 nan
nan 5 8 8 9 12 7 7 5 7 2 3 9 18 16 7 4 7 5 3 4 5 4 5 6 6 7 6 8 8 7 7 7 6 6 6 6 7 7 7 9 10 8 8 6 6 8 8 nan
nan 2 4 5 12 13 8 6 7 7 5 11 13 10 5 3 3 6 6 6 6 4 5 6 5 6 6 6 6 7 8 7 7 7 6 6 7 6 8 9 8 7 8 7 6 7 9 8 nan
nan 6 3 4 6 9 8 3 9 2 6 20 18 9 3 4 4 4 5 6 7 6 6 5 6 6 4 6 8 7 7 7 7 8 6 7 6 7 8 7 6 7 8 7 8 7 7 7 nan
nan 8 5 5 3 5 11 5 8 0 10 20 15 7 4 4 5 6 6 7 7 7 7 6 6 6 6 4 6 7 7 7 7 7 7 7 7 7 7 7 7 7 7 8 8 8 8 6 nan
nan 5 6 10 10 11 12 6 0 11 15 12 8 5 5 6 4 4 7 7 7 6 7 6 6 6 7 5 5 6 7 7 7 7 8 7 6 7 7 7 7 8 8 9 9 8 7 8 nan
nan 9 17 15 14 9 10 8 2 10 14 7 5 6 6 5 6 6 6 6 7 7 8 7 6 6 6 6 5 7 8 7 7 8 9 8 7 7 7 7 7 8 9 9 8 6 7 8 nan
nan 12 8 11 10 16 13 7 11 9 8 7 6 5 6 8 5 6 7 7 6 8 8 7 8 7 5 6 6 7 8 7 7 9 10 9 7 7 7 7 7 9 10 8 7 7 8 8 nan
nan 10 4 9 10 14 4 13 21 9 6 7 7 6 6 6 6 7 7 8 8 7 7 8 8 8 6 5 7 8 8 7 8 8 9 9 8 8 7 7 9 8 8 8 7 8 8 7 nan
nan 7 8 8 10 12 3 11 18 13 7 7 6 6 7 7 8 6 6 7 7 8 7 7 8 8 7 6 6 7 7 8 9 9 9 9 10 8 7 8 9 7 7 7 7 8 7 8 nan
nan 6 5 6 8 13 6 6 16 11 5 8 8 7 7 7 8 7 8 7 7 8 8 8 6 6 5 6 7 8 8 8 9 11 10 9 9 9 7 7 8 8 8 8 7 7 7 7 nan
nan 4 6 8 11 8 15 11 16 11 12 6 5 6 7 6 10 9 7 7 8 7 6 7 6 5 4 4 6 9 11 9 10 9 10 9 8 8 7 7 8 8 8 8 8 7 7 7 nan
nan 10 9 7 11 8 9 12 15 7 8 13 9 9 8 9 8 8 9 7 5 6 8 7 8 5 6 4 2 4 7 8 8 9 10 10 10 8 8 7 8 7 7 8 8 8 8 7 nan
nan 12 9 9 7 10 4 9 10 22 11 5 8 9 7 6 7 9 9 7 8 8 7 7 8 7 8 7 5 5 3 5 6 8 10 10 9 9 9 8 8 7 7 8 8 8 8 9 nan
nan 13 9 8 7 6 4 11 12 14 14 10 7 8 9 8 7 8 9 9 7 9 9 9 8 7 8 8 5 5 5 6 8 11 10 8 10 10 9 9 8 7 7 9 9 8 7 7 nan
nan 5 6 10 12 9 14 6 7 11 12 9 7 9 9 8 8 8 7 10 10 10 9 10 9 8 8 8 8 7 4 4 5 8 8 8 9 11 10 10 9 8 8 9 9 8 8 7 nan
nan 5 6 8 9 12 15 5 9 9 16 13 9 6 9 8 8 7 7 8 11 10 8 9 9 8 8 8 7 7 7 6 5 5 7 6 6 9 12 9 7 8 9 9 9 8 8 8 nan
nan 4 9 10 7 13 8 7 15 14 10 12 13 13 9 9 10 9 7 5 8 9 7 8 8 9 8 8 8 7 6 5 8 7 7 7 8 9 11 9 8 8 8 8 8 7 9 9 nan
nan 11 3 5 9 11 2 6 16 17 11 15 13 12 12 13 11 10 10 8 7 9 10 8 7 9 9 7 8 9 8 7 8 9 6 7 8 10 11 11 9 8 8 8 7 8 9 8 nan
nan 6 4 11 13 3 11 12 13 12 11 5 11 14 10 12 11 11 11 9 10 10 11 8 9 9 9 9 7 9 9 7 6 8 9 7 8 9 9 10 9 9 9 9 7 7 9 8 nan
nan 5 9 13 8 6 9 12 15 9 12 12 10 11 11 11 12 12 11 12 11 9 11 11 10 9 8 9 9 7 8 9 8 8 9 8 9 9 8 9 9 9 8 8 7 8 9 7 nan
nan nan nan nan nan nan nan nan nan nan nan nan nan nan nan nan nan nan nan nan nan nan nan nan nan nan nan nan nan nan nan nan nan nan nan nan nan nan nan nan nan nan nan nan nan nan nan nan nan
CAPE
364 327 139 207 132 23 70 79 76 1 5 8 0 0 0 6 1 0 0 0 3 10 172 305 1319 1602 1761 2437 2520 2329 2068 1956 2143 2164 1917 1806 1863 1767 1699 1780 1677 1604 1615 1893 1759 1736 1699 1571 1298
451 202 284 1 5 6 33 26 49 0 0 0 0 0 0 2 0 4 11 8 6 56 241 321 1630 1930 1897 2254 2311 2463 1817 1845 1902 1928 1970 1965 1848 1732 1687 1560 1516 1626 1686 1589 1693 1743 1667 1616 1296
382 513 61 27 0 43 1 30 27 2 0 7 0 0 0 17 5 7 0 8 50 116 261 693 1499 1942 1803 1805 2005 2547 1978 1930 1920 1915 1969 1905 1743 1631 1502 1496 1609 1668 1787 1714 1639 1710 1775 1559 1340
210 268 408 258 167 111 39 39 30 35 20 7 0 1 0 1 0 0 1 11 83 276 373 1345 1631 1640 1910 1778 2066 2119 1792 1738 1766 1882 1906 1777 1593 1460 1447 1517 1640 1828 1841 1631 1583 1569 1630 1525 1333
359 192 179 241 277 105 145 89 122 91 55 36 27 0 9 30 1 5 39 68 193 346 607 1221 2135 2064 1999 1751 1906 1868 1861 1823 1726 1817 1879 1666 1470 1399 1379 1400 1535 1706 1912 1746 1615 1463 1457 1397 1298
132 124 80 66 65 138 247 107 178 109 93 53 15 12 93 17 16 40 70 86 306 433 724 1036 1787 1871 1832 1613 1594 1594 1834 1945 1806 1733 1820 1697 1451 1428 1388 1350 1409 1655 1749 1742 1453 1568 1457 1232 1208
3 12 3 63 40 235 318 146 177 83 82 71 40 58 139 29 72 76 67 77 329 543 785 912 1023 1469 1643 1664 1565 1518 1658 1933 1907 1847 1782 1818 1604 1386 1391 1355 1425 1473 1460 1587 1437 1383 1397 1344 1282
0 0 0 25 90 131 320 246 139 55 101 40 67 50 96 84 138 95 104 93 360 768 864 794 806 1001 1148 1347 1614 1487 1602 1873 1911 1940 1841 1698 1681 1471 1488 1471 1487 1719 1474 1367 1490 1355 1513 1467 1495
1 0 0 1 32 89 274 247 183 123 88 91 90 80 70 186 164 169 198 190 631 905 879 801 717 666 989 1047 1239 1500 1505 1621 1815 1782 1851 1654 1271 1156 1533 1849 2011 1867 1673 1501 1530 1462 1566 1722 1782
0 0 0 0 0 50 324 311 215 152 75 245 120 100 177 269 179 206 163 167 413 662 864 828 755 749 1092 1507 1239 1108 947 1048 1100 1454 1309 1453 1108 586 1450 1902 2244 1738 1718 1449 1696 1776 1557 1314 1313
12 172 0 0 109 84 371 358 336 179 89 247 124 152 278 242 225 252 203 170 292 493 841 933 794 849 1117 1503 1113 1013 910 926 1002 1091 1011 788 1043 645 708 1018 1086 801 1286 1145 786 1059 918 1271 841
85 0 22 53 9 299 437 393 390 105 130 198 158 176 346 199 260 279 297 245 245 461 673 906 827 940 935 899 930 859 835 709 670 625 510 346 305 316 462 732 658 591 651 1173 1247 1100 1072 749 995
91 21 29 25 12 10 331 429 453 372 257 194 173 319 334 238 261 259 282 213 211 342 566 810 798 904 898 561 703 699 695 712 501 285 148 210 362 447 234 357 589 625 733 939 1005 1201 919 635 949
0 4 1 0 0 0 66 438 423 539 352 155 240 298 264 261 289 256 261 223 185 262 381 601 714 743 790 599 374 520 390 428 275 166 68 143 345 334 258 317 588 1093 1040 1164 1105 982 932 931 913
0 0 0 0 0 0 26 341 432 437 397 250 203 230 236 224 294 259 258 252 224 275 259 438 556 546 574 491 121 143 232 290 206 133 106 206 369 463 479 358 530 683 860 948 924 608 662 66 5
0 0 0 0 0 0 132 104 383 400 463 424 286 230 207 198 244 255 279 257 288 353 380 414 518 461 336 297 131 76 39 78 176 196 489 467 455 404 402 534 526 655 690 985 488 462 182 0 0
0 0 0 0 0 0 14 0 83 331 498 521 437 323 278 236 239 302 397 308 360 380 470 480 439 385 321 198 132 175 75 75 283 274 383 427 481 487 495 638 685 568 604 611 586 194 27 0 0
0 0 0 0 0 0 0 0 20 293 479 577 516 452 424 367 324 319 383 369 410 366 479 485 472 444 349 243 152 91 227 249 161 136 365 543 675 753 641 630 814 778 587 559 189 94 0 0 0
0 0 0 0 0 0 0 0 170 225 360 541 549 576 537 514 405 386 294 321 383 278 385 395 461 462 410 210 152 257 360 294 311 275 434 645 738 995 813 583 746 735 647 590 128 5 0 0 0
0 0 0 0 0 0 0 0 76 274 348 423 577 579 606 584 478 474 310 192 303 228 230 317 409 411 436 418 288 325 400 177 353 496 499 638 824 954 911 614 704 562 419 298 69 0 0 0 0
0 0 0 0 0 0 0 0 0 192 227 324 522 532 560 588 564 462 386 205 185 144 207 210 320 359 327 468 345 271 219 313 352 370 470 367 686 1020 1035 605 601 543 404 281 52 0 0 0 0
0 0 0 0 0 0 0 0 0 10 199 205 159 366 535 562 605 419 339 311 107 131 106 200 206 238 215 336 423 546 625 619 549 434 464 608 488 640 1034 648 488 541 454 279 45 0 0 0 0
0 0 0 0 0 0 0 0 0 0 97 212 221 163 202 239 341 401 81 92 252 108 72 154 215 220 230 293 454 461 543 541 220 341 534 583 852 854 967 777 511 472 427 226 2 0 0 0 0
0 0 0 0 0 0 0 0 0 0 0 135 241 254 249 190 134 117 54 6 71 143 41 114 192 239 235 240 443 474 494 295 214 260 491 498 632 793 897 725 590 413 264 107 0 0 0 0 0
0 0 0 0 0 0 0 0 0 0 0 11 50 88 156 210 164 122 74 7 83 128 80 64 230 257 283 235 332 484 529 360 356 276 497 407 531 678 792 726 482 172 56 42 0 0 0 0 0
0 0 0 0 0 0 0 0 0 0 0 0 0 7 1 12 59 83 87 41 4 142 136 201 264 330 333 297 259 373 452 437 438 326 403 400 528 663 864 814 690 294 37 9 0 0 0 0 0
0 0 0 0 0 0 0 0 0 0 0 0 0 0 0 0 0 5 23 37 45 29 122 298 341 322 345 408 378 370 464 532 514 355 283 384 498 675 714 819 774 480 64 6 0 0 0 0 0
0 0 0 0 0 0 0 0 0 0 0 0 0 0 0 0 0 0 0 0 8 18 71 247 411 392 457 552 561 563 592 663 616 350 289 385 438 759 620 809 808 559 69 7 0 0 0 0 0
0 0 0 0 0 0 0 0 0 0 0 0 0 0 0 0 0 0 0 3 5 19 11 101 332 409 494 806 787 762 743 753 671 416 434 414 477 551 523 742 775 544 161 5 2 0 0 0 0
0 0 0 0 0 0 0 0 0 0 0 0 0 0 0 0 0 0 0 0 4 4 19 39 270 366 451 849 969 912 824 801 755 602 583 557 465 399 464 555 673 536 266 80 37 21 14 0 0